Flag for U.S.A. Weather past 2 weeks in Cape Canaveral, Florida, U.S.A.

Now
71 °F

Sunny.


Feels Like: 77 °F
Forecast: 58 / 69 °F
Wind: 16 mph from South

Location: Cape Kennedy

Current Time: Feb 1, 2015 at 3:00:37 PM

Latest Report: Feb 1, 2015 at 1:58 PM


Visibility: 10 mi

Pressure: 30.18 "Hg

Humidity: 55%

Dew point: 54 °F

Location of Cape CanaveralLocation

Historic Weather in Cape Canaveral — Graph

°F

Cape Canaveral temperature yesterday

Maximum temperature yesterday: 68 °F (at 1:58 PM)
Minimum temperature yesterday: 51 °F (at 8:58 PM)
Average temperature yesterday: 60 °F

Past Weeks' High & Low Weather Summary

 TemperatureHumidityPressure
High76 °F (Jan 23, 12:58 PM)96% (Jan 21, 12:58 AM)30.33 "Hg (Jan 21, 12:58 AM)
Low44 °F (Jan 27, 6:58 AM)30% (Jan 25, 1:58 PM)29.80 "Hg (Jan 24, 4:58 AM)
Average60 °F73%30.10 "Hg
* Reported Jan 17 1:58 PM — Feb 1 1:58 PM, Cape Canaveral, Weather by CustomWeather, © 2014

Note: Actual official high and low records may vary slightly from our data, if they occured in-between our weather recording intervals... More about our weather records

Advertising

Cape Canaveral weather history for previous 24 hours

 ConditionsComfort  
Time TempWeatherWind HumidityBarometerVisibility
1:58 PM
Feb 1
71 °FSunny.16 mph55%30.18 "Hg10 mi
12:58 PM71 °FSunny.17 mph54%30.21 "Hg10 mi
11:58 AM70 °FSunny.13 mph58%30.24 "Hg10 mi
10:59 AM66 °FPassing clouds.6 mph68%30.26 "Hg10 mi
9:58 AM67 °FScattered clouds.7 mph64%30.27 "Hg10 mi
8:58 AM68 °FPassing clouds.13 mph60%30.25 "Hg10 mi
7:58 AM53 °FPassing clouds.5 mph91%30.25 "Hg10 mi
6:58 AM53 °FPassing clouds.2 mph88%30.24 "Hg10 mi
5:58 AM51 °FClear.3 mph88%30.23 "Hg10 mi
4:58 AM52 °FPassing clouds.3 mph88%30.23 "Hg10 mi
3:58 AM56 °FPassing clouds.5 mph81%30.23 "Hg10 mi
2:58 AM56 °FPassing clouds.6 mph85%30.24 "Hg10 mi
1:58 AM59 °FClear.6 mph76%30.25 "Hg10 mi
12:58 AM59 °FPassing clouds.5 mph71%30.25 "Hg10 mi
11:58 PM
Jan 31
58 °FPassing clouds.6 mph74%30.27 "Hg10 mi
10:58 PM60 °FClear.6 mph68%30.28 "Hg10 mi
9:58 PM53 °FClear.1 mph85%30.29 "Hg10 mi
8:58 PM51 °FPassing clouds.2 mph87%30.29 "Hg10 mi
7:58 PM54 °FClear.5 mph83%30.29 "Hg10 mi
6:58 PM58 °FClear.3 mph74%30.29 "Hg10 mi
5:58 PM62 °FPassing clouds.5 mph69%30.28 "Hg10 mi
4:58 PM65 °FSunny.6 mph61%30.27 "Hg10 mi
3:58 PM66 °FSunny.6 mph55%30.27 "Hg10 mi
Weather by CustomWeather, © 2014

See weather overviewHow to use our weather pages